Find Shiyan 25

NORAD ID: 57047 Int'l Des: 2023-087 Owner: DFHZ Country: CN operational
LEOCIRCULARRETROGRADESSO

Live Position

Loading 3D Globe...

About Shiyan 25

Description loading...

Upcoming Passes

Passes for default location (London). Set your location on the main map for personalized predictions.

Altitude History

Loading altitude history...

Two-Line Element Set

1 57047U 23087A 26106.28296424 -.00005101 19806-5 -82124-5 0 9995
2 57047 96.7595 167.7275 0016650 219.1597 140.8479 16.00994015164899
Epoch: Apr 16, 2026 • Age: 7 hours

Current Status

Altitude 266.5 km
Velocity 7.75 km/s
Sub-Earth Point -6.16°S, 60.94°W
Launch Date Jun 20, 2023
Age 2.8 years
Type other

Technical Details

Classification Payload
Mass 100.00 kg
Dry Mass 100.00 kg
Total Mass 100.00 kg
Length 1.00 m
Diameter 0.50 m
Span 2.00 m
Shape Box + 2 pan
Manufacturer DFHZ
Phase Status In Orbit
Owner/State DFHZ/CN

Most Searched